GW0714 Weather Reports


time (UTC)temp
C
wind
direction
speed
KPH
gust
KPH
rain 1hr
cm
rain 24hr
cm
rain mn
cm
humidity
%
barometer
mb
20260904083530 14 316 4.8 12.9 0.08 0.15 0.10 95 1012.2
20260904083127 14 321 4.8 12.9 0.05 0.13 0.08 95 1012.2
20260904082530 14 335 3.2 9.7 0.05 0.13 0.08 95 1012.2
20260904082028 14 333 1.6 9.7 0.05 0.13 0.08 95 1012.3
20260904081547 14 336 4.8 9.7 0.08 0.13 0.08 95 1012.3
20260904081027 14 340 4.8 9.7 0.05 0.10 0.05 95 1012.3
20260904080531 14 10 3.2 12.9 0.05 0.10 0.05 95 1012.3
20260904080045 14 352 4.8 12.9 0.05 0.10 0.05 95 1012.3
20260904075529 14 345 3.2 9.7 0.05 0.10 0.05 95 1012.3
20260904075032 14 350 3.2 9.7 0.05 0.10 0.05 95 1012.4
20260904074551 15 333 3.2 9.7 0.03 0.08 0.03 95 1012.4
20260904074028 15 18 3.2 8.0 0.03 0.08 0.03 95 1012.4
20260904073530 15 23 3.2 9.7 0.03 0.08 0.03 95 1012.4
20260904073057 15 352 3.2 9.7 0.03 0.08 0.03 95 1012.4
20260904072529 15 322 3.2 14.5 0.03 0.08 0.03 95 1012.5
20260904072030 15 342 3.2 14.5 0.03 0.08 0.03 95 1012.5
20260904071611 15 5 6.4 14.5 0.00 0.05 0.00 95 1012.4
20260904071029 15 340 8.0 14.5 0.00 0.05 0.00 94 1012.3
20260904070532 15 333 6.4 14.5 0.00 0.05 0.00 94 1012.4
20260904070109 15 346 6.4 14.5 0.03 0.05 0.00 94 1012.4
20260904065529 15 344 4.8 12.9 0.05 0.05 0.05 94 1012.4
20260904065034 15 26 6.4 12.9 0.05 0.05 0.05 94 1012.4
20260904064549 15 352 3.2 9.7 0.05 0.05 0.05 94 1012.3
20260904064029 15 17 3.2 9.7 0.05 0.05 0.05 94 1012.3
20260904063533 15 352 3.2 9.7 0.05 0.05 0.05 94 1012.2
20260904063100 15 315 1.6 14.5 0.05 0.05 0.05 94 1012.2
20260904062529 15 332 6.4 14.5 0.05 0.05 0.05 93 1012.2
20260904062029 15 25 1.6 8.0 0.05 0.05 0.05 93 1012.3
20260904061549 15 5 4.8 8.0 0.05 0.05 0.05 93 1012.3
20260904061029 15 348 4.8 8.0 0.05 0.05 0.05 93 1012.3
20260904060530 15 0 1.6 8.0 0.03 0.03 0.03 92 1012.2
20260904060045 15 319 3.2 16.1 0.03 0.03 0.03 92 1012.4
20260904055529 15 24 4.8 16.1 0.00 0.00 0.00 91 1012.3
20260904055029 15 352 6.4 16.1 0.00 0.00 0.00 90 1012.3
20260904054553 15 5 4.8 12.9 0.00 0.00 0.00 89 1012.3
20260904054030 15 350 4.8 12.9 0.00 0.00 0.00 89 1012.2
20260904053529 15 342 4.8 12.9 0.00 0.00 0.00 89 1012.2
20260904053101 15 325 4.8 12.9 0.00 0.00 0.00 89 1012.4
20260904052529 15 341 4.8 9.7 0.00 0.00 0.00 89 1012.3
20260904052032 15 335 3.2 9.7 0.00 0.00 0.00 89 1012.3
20260904051549 15 336 1.6 8.0 0.00 0.00 0.00 90 1012.5
20260904051031 15 0 1.6 8.0 0.00 0.00 0.00 90 1012.6
20260904050531 15 0 0.0 9.7 0.00 0.00 0.00 90 1012.6
20260904050043 15 0 3.2 9.7 0.00 0.00 0.00 90 1012.7
20260904045532 15 335 1.6 8.0 0.00 0.00 0.00 90 1012.7
20260904045032 15 328 1.6 8.0 0.00 0.00 0.00 90 1012.7
20260904044549 15 322 3.2 8.0 0.00 0.00 0.00 90 1012.6
20260904044031 15 0 1.6 6.4 0.00 0.00 0.00 90 1012.6
20260904043530 15 327 1.6 6.4 0.00 0.00 0.00 90 1012.5
20260904043056 15 321 0.0 4.8 0.00 0.00 0.00 91 1012.5
20260904042534 15 325 0.0 3.2 0.00 0.00 0.00 91 1012.6
20260904042031 15 0 0.0 1.6 0.00 0.00 0.00 91 1012.7
20260904041544 15 0 0.0 1.6 0.00 0.00 0.00 91 1012.7
20260904041034 15 0 0.0 1.6 0.00 0.00 0.00 91 1012.7
20260904040530 15 0 0.0 1.6 0.00 0.00 0.00 91 1012.6
20260904040104 15 0 0.0 0.0 0.00 0.00 0.00 91 1012.5
20260904035534 15 0 0.0 0.0 0.00 0.00 0.00 91 1012.6
20260904035031 15 0 0.0 0.0 0.00 0.00 0.00 91 1012.6
20260904034550 15 0 0.0 0.0 0.00 0.00 0.00 90 1012.6
20260904034031 15 0 0.0 0.0 0.00 0.00 0.00 90 1012.6
20260904033532 15 0 0.0 1.6 0.00 0.00 0.00 89 1012.5
20260904033046 15 0 0.0 4.8 0.00 0.00 0.00 89 1012.5
20260904032531 16 0 0.0 4.8 0.00 0.00 0.00 88 1012.5
20260904032031 16 0 0.0 0.0 0.00 0.00 0.00 87 1012.6
20260904031553 16 0 0.0 0.0 0.00 0.00 0.00 86 1012.6
20260904031030 16 0 0.0 1.6 0.00 0.00 0.00 86 1012.6
20260904030534 16 0 0.0 3.2 0.00 0.00 0.00 85 1012.6
20260904030053 16 0 0.0 4.8 0.00 0.00 0.00 84 1012.6
20260904025530 16 0 0.0 12.9 0.00 0.00 0.00 84 1012.6
20260904025031 16 86 1.6 12.9 0.00 0.00 0.00 83 1012.6
20260904024549 16 0 0.0 3.2 0.00 0.00 0.00 83 1012.7
20260904024029 16 0 0.0 3.2 0.00 0.00 0.00 83 1012.6
20260904023530 16 0 1.6 4.8 0.00 0.00 0.00 82 1012.7
20260904023046 16 0 0.0 6.4 0.00 0.00 0.00 82 1012.6
20260904022531 16 144 1.6 6.4 0.00 0.00 0.00 81 1012.6
20260904022031 17 0 0.0 9.7 0.00 0.00 0.00 81 1012.6
20260904021550 17 125 1.6 9.7 0.00 0.00 0.00 80 1012.6
20260904021032 17 144 1.6 6.4 0.00 0.00 0.00 79 1012.5
20260904020532 17 0 0.0 8.0 0.00 0.00 0.00 78 1012.5
20260904020050 17 0 0.0 8.0 0.00 0.00 0.00 77 1012.5
20260904015531 17 38 3.2 9.7 0.00 0.00 0.00 77 1012.6
20260904015031 17 51 1.6 9.7 0.00 0.00 0.00 76 1012.6
20260904014545 17 36 1.6 6.4 0.00 0.00 0.00 76 1012.7
20260904014031 17 82 1.6 8.0 0.00 0.00 0.00 75 1012.7
20260904013532 17 46 1.6 14.5 0.00 0.00 0.00 75 1012.8
20260904013050 17 326 1.6 14.5 0.00 0.00 0.00 76 1012.7
20260904012531 17 309 4.8 14.5 0.00 0.00 0.00 76 1012.7
20260904012032 17 351 1.6 12.9 0.00 0.00 0.00 75 1012.8
20260904011550 17 45 1.6 14.5 0.00 0.00 0.00 75 1012.7
20260904011031 17 346 4.8 14.5 0.00 0.00 0.00 76 1012.7
20260904010531 17 11 3.2 12.9 0.00 0.00 0.00 76 1012.9
20260904010046 17 317 0.0 6.4 0.00 0.00 0.00 75 1012.8
20260904005529 17 0 1.6 12.9 0.00 0.00 0.00 75 1013.0
20260904005030 18 5 3.2 14.5 0.00 0.00 0.00 74 1013.1
20260904004553 18 53 1.6 14.5 0.00 0.00 0.00 74 1013.0
20260904004031 18 336 1.6 12.9 0.00 0.00 0.00 74 1013.0
20260904003529 18 25 0.0 14.5 0.00 0.00 0.00 74 1013.0
20260904003049 18 13 4.8 16.1 0.00 0.00 0.00 74 1013.0
20260904002531 18 352 4.8 16.1 0.00 0.00 0.00 74 1012.9
20260904002032 18 352 3.2 9.7 0.00 0.00 0.00 73 1012.8
20260904001550 18 38 1.6 8.0 0.00 0.00 0.00 73 1012.9
20260904001031 18 0 0.0 9.7 0.00 0.00 0.00 73 1013.0
20260904000531 18 301 1.6 11.3 0.00 0.00 0.00 73 1013.1
20260903235535 18 325 3.2 11.3 0.00 0.00 0.00 73 1013.1
20260903235034 18 352 1.6 8.0 0.00 0.00 0.00 72 1013.1
20260903234552 18 325 1.6 11.3 0.00 0.00 0.00 72 1013.1
20260903234031 18 340 3.2 11.3 0.00 0.00 0.00 72 1013.2
20260903233537 18 21 1.6 14.5 0.00 0.00 0.00 72 1013.2
20260903233050 18 0 4.8 14.5 0.00 0.00 0.00 72 1013.2
20260903232532 18 327 6.4 12.9 0.00 0.00 0.00 72 1013.2
20260903232031 18 360 3.2 12.9 0.00 0.00 0.00 72 1013.2
20260903231548 18 42 4.8 12.9 0.00 0.00 0.00 72 1013.2
20260903231031 18 329 3.2 11.3 0.00 0.00 0.00 72 1013.2
20260903230541 18 343 3.2 14.5 0.00 0.00 0.00 72 1013.3
20260903230055 18 339 6.4 16.1 0.00 0.00 0.00 72 1013.4
20260903225529 18 19 6.4 16.1 0.00 0.00 0.00 72 1013.5
20260903225028 18 348 6.4 16.1 0.00 0.00 0.00 71 1013.5
20260903224550 18 360 3.2 8.0 0.00 0.00 0.00 72 1013.5
20260903224029 18 18 3.2 12.9 0.00 0.00 0.00 72 1013.6
20260903223528 18 19 4.8 12.9 0.00 0.00 0.00 71 1013.6
20260903223046 18 335 4.8 11.3 0.00 0.00 0.00 72 1013.6
20260903222529 18 309 3.2 12.9 0.00 0.00 0.00 72 1013.7
20260903222031 18 32 4.8 14.5 0.00 0.00 0.00 72 1013.7
20260903221550 18 330 3.2 14.5 0.00 0.00 0.00 72 1013.9
20260903221025 18 352 4.8 14.5 0.00 0.00 0.00 72 1014.1
20260903220528 18 349 3.2 16.1 0.00 0.00 0.00 72 1014.1
20260903220053 18 342 4.8 16.1 0.00 0.00 0.00 71 1014.1
20260903215530 18 329 1.6 16.1 0.00 0.00 0.00 71 1014.1
20260903215030 18 45 4.8 16.1 0.00 0.00 0.00 70 1014.2
20260903214605 18 56 3.2 12.9 0.00 0.00 0.00 70 1014.2
20260903214031 18 80 1.6 14.5 0.00 0.00 0.00 70 1014.3
20260903213529 18 338 3.2 17.7 0.00 0.00 0.00 69 1014.2
20260903213048 18 84 4.8 17.7 0.00 0.00 0.00 69 1014.3
20260903212535 18 58 3.2 16.1 0.00 0.00 0.00 69 1014.2
20260903212028 18 5 6.4 16.1 0.00 0.00 0.00 69 1014.3
20260903211543 18 22 3.2 14.5 0.00 0.00 0.00 68 1014.3
20260903211026 18 311 4.8 16.1 0.00 0.00 0.00 68 1014.4
20260903210526 18 340 6.4 16.1 0.00 0.00 0.00 68 1014.3
20260903210052 18 13 1.6 12.9 0.00 0.00 0.00 68 1014.4
20260903205528 19 0 4.8 12.9 0.00 0.00 0.00 68 1014.5
20260903205029 19 340 3.2 8.0 0.00 0.00 0.00 68 1014.5
20260903204551 18 0 3.2 12.9 0.00 0.00 0.00 68 1014.5
20260903204026 18 43 3.2 12.9 0.00 0.00 0.00 67 1014.4
20260903203533 18 0 4.8 16.1 0.00 0.00 0.00 69 1014.4
20260903203044 18 360 6.4 16.1 0.00 0.00 0.00 68 1014.5
20260903202534 18 24 6.4 16.1 0.00 0.00 0.00 67 1014.5
20260903202029 18 9 4.8 12.9 0.00 0.00 0.00 68 1014.5
20260903201552 18 333 3.2 11.3 0.00 0.00 0.00 68 1014.5
20260903201032 18 30 4.8 16.1 0.00 0.00 0.00 69 1014.6
20260903200534 18 36 6.4 19.3 0.00 0.00 0.00 68 1014.6
20260903200057 18 346 11.3 19.3 0.00 0.00 0.00 66 1014.6
20260903195531 18 347 11.3 20.9 0.00 0.00 0.00 65 1014.7
20260903195031 18 28 9.7 20.9 0.00 0.00 0.00 63 1014.8
20260903194554 19 346 8.0 17.7 0.00 0.00 0.00 64 1014.8
20260903194031 19 327 8.0 19.3 0.00 0.00 0.00 65 1014.8
20260903193531 19 349 8.0 19.3 0.00 0.00 0.00 63 1014.9
20260903193046 19 13 9.7 19.3 0.00 0.00 0.00 63 1014.9
20260903192535 19 11 6.4 16.1 0.00 0.00 0.00 64 1014.9
20260903192031 19 328 6.4 19.3 0.00 0.00 0.00 63 1014.9
20260903191548 18 57 11.3 19.3 0.00 0.00 0.00 64 1015.0
20260903191031 18 5 4.8 14.5 0.00 0.00 0.00 64 1015.0
20260903190529 18 305 8.0 14.5 0.00 0.00 0.00 65 1015.0
20260903190051 18 317 6.4 17.7 0.00 0.00 0.00 65 1015.1
20260903185530 18 0 6.4 17.7 0.00 0.00 0.00 65 1015.1
20260903185032 18 24 3.2 16.1 0.00 0.00 0.00 64 1015.3
20260903184549 18 24 6.4 16.1 0.00 0.00 0.00 64 1015.3
20260903184029 18 5 4.8 12.9 0.00 0.00 0.00 66 1015.3
20260903183533 18 348 6.4 12.9 0.00 0.00 0.00 65 1015.3
20260903183052 18 326 4.8 12.9 0.00 0.00 0.00 64 1015.3
20260903182531 18 26 4.8 12.9 0.00 0.00 0.00 64 1015.3
20260903182031 18 333 6.4 12.9 0.00 0.00 0.00 64 1015.3
20260903181548 18 17 3.2 16.1 0.00 0.00 0.00 63 1015.4
20260903181031 18 13 3.2 16.1 0.00 0.00 0.00 64 1015.3
20260903180538 18 340 4.8 12.9 0.00 0.00 0.00 63 1015.3
20260903180056 18 18 6.4 12.9 0.00 0.00 0.00 64 1015.4
20260903175529 18 338 4.8 12.9 0.00 0.00 0.00 64 1015.3
20260903175030 18 360 3.2 11.3 0.00 0.00 0.00 66 1015.3
20260903174551 17 0 3.2 12.9 0.00 0.00 0.00 65 1015.3
20260903174031 17 0 3.2 12.9 0.00 0.00 0.00 65 1015.3
20260903173531 17 352 6.4 12.9 0.00 0.00 0.00 64 1015.3
20260903173049 17 36 0.0 8.0 0.00 0.00 0.00 65 1015.3
20260903172533 17 0 1.6 12.9 0.00 0.00 0.00 67 1015.2
20260903172031 16 5 1.6 12.9 0.00 0.00 0.00 66 1015.2
20260903171547 16 349 1.6 12.9 0.00 0.00 0.00 66 1015.2
20260903171033 16 318 0.0 12.9 0.00 0.00 0.00 66 1015.3
20260903170530 16 329 0.0 8.0 0.00 0.00 0.00 67 1015.4
20260903165532 15 325 0.0 4.8 0.00 0.00 0.00 68 1015.5
20260903165032 15 0 0.0 6.4 0.00 0.00 0.00 70 1015.5
20260903164550 15 332 0.0 6.4 0.00 0.00 0.00 70 1015.6
20260903164031 15 296 0.0 12.9 0.00 0.00 0.00 71 1015.5
20260903163530 15 0 3.2 12.9 0.00 0.00 0.00 71 1015.3
20260903163049 15 5 1.6 8.0 0.00 0.00 0.00 72 1015.4
20260903162530 15 325 0.0 6.4 0.00 0.00 0.00 74 1015.5
20260903162032 15 0 1.6 4.8 0.00 0.00 0.00 74 1015.5
20260903161546 15 0 0.0 4.8 0.00 0.00 0.00 74 1015.6
20260903161031 14 0 0.0 4.8 0.00 0.00 0.00 75 1015.6
20260903160530 14 0 0.0 4.8 0.00 0.00 0.00 75 1015.7
20260903160054 14 337 0.0 6.4 0.00 0.00 0.00 75 1015.7
20260903155530 14 0 1.6 6.4 0.00 0.00 0.00 75 1015.6
20260903155030 14 0 0.0 6.4 0.00 0.00 0.00 75 1015.8
20260903154557 14 0 0.0 4.8 0.00 0.00 0.00 76 1015.8
20260903154031 13 0 0.0 4.8 0.00 0.00 0.00 76 1015.8
20260903153532 13 0 0.0 4.8 0.00 0.00 0.00 76 1015.7
20260903153106 13 279 0.0 6.4 0.00 0.00 0.00 77 1015.7
20260903152528 13 269 1.6 6.4 0.00 0.00 0.00 77 1015.7
20260903152028 13 327 1.6 9.7 0.00 0.00 0.00 77 1015.7
20260903151549 13 291 0.0 14.5 0.00 0.00 0.00 78 1015.5
20260903151030 13 295 0.0 14.5 0.00 0.00 0.00 78 1015.5
20260903150530 13 286 3.2 16.1 0.00 0.00 0.00 78 1015.5
20260903150101 13 333 1.6 16.1 0.00 0.00 0.00 78 1015.4
20260903145528 13 314 4.8 16.1 0.00 0.00 0.00 78 1015.4
20260903145031 13 28 3.2 14.5 0.00 0.00 0.00 78 1015.5
20260903144545 13 331 3.2 14.5 0.00 0.00 0.00 79 1015.5
20260903144033 13 10 4.8 14.5 0.00 0.00 0.00 78 1015.4
20260903143533 13 0 3.2 14.5 0.00 0.00 0.00 79 1015.4
20260903143105 13 332 3.2 12.9 0.00 0.00 0.00 79 1015.4
20260903142532 13 352 1.6 6.4 0.00 0.00 0.00 79 1015.4
20260903142032 13 336 0.0 3.2 0.00 0.00 0.00 79 1015.4
20260903141549 13 0 0.0 3.2 0.00 0.00 0.00 79 1015.3
20260903141029 13 0 0.0 3.2 0.00 0.00 0.00 79 1015.3
20260903140527 13 0 0.0 3.2 0.00 0.00 0.00 79 1015.3
20260903140052 13 0 0.0 4.8 0.00 0.00 0.00 79 1015.3
20260903135530 13 0 0.0 4.8 0.00 0.00 0.00 78 1015.3
20260903135029 13 339 0.0 6.4 0.00 0.00 0.00 78 1015.2
20260903134549 13 278 0.0 6.4 0.00 0.00 0.00 78 1015.2
20260903134030 13 333 1.6 6.4 0.00 0.00 0.00 78 1015.2
20260903133527 13 0 0.0 8.0 0.00 0.00 0.00 78 1015.2
20260903133046 13 360 3.2 8.0 0.00 0.00 0.00 78 1015.2
20260903132529 13 5 1.6 8.0 0.00 0.00 0.00 77 1015.2
20260903132029 13 327 3.2 8.0 0.00 0.00 0.00 77 1015.2
20260903131554 13 33 1.6 6.4 0.00 0.00 0.00 77 1015.2
20260903131035 13 0 0.0 4.8 0.00 0.00 0.00 76 1015.1
20260903130533 13 348 0.0 9.7 0.00 0.00 0.00 76 1015.1
20260903130051 13 0 0.0 9.7 0.00 0.00 0.00 76 1015.0
20260903125530 13 0 1.6 9.7 0.00 0.00 0.00 76 1015.1
20260903125031 13 0 0.0 8.0 0.00 0.00 0.00 75 1015.0
20260903124549 13 0 0.0 12.9 0.00 0.00 0.00 75 1015.2
20260903124033 13 0 1.6 12.9 0.00 0.00 0.00 75 1015.2
20260903123529 13 0 1.6 9.7 0.00 0.00 0.00 74 1015.2
20260903123053 13 323 3.2 6.4 0.00 0.00 0.00 74 1015.2
20260903122532 13 300 1.6 9.7 0.00 0.00 0.00 74 1015.2
20260903122030 13 296 0.0 9.7 0.00 0.00 0.00 74 1015.2
20260903121552 13 331 1.6 8.0 0.00 0.00 0.00 74 1015.3
20260903121031 13 331 0.0 9.7 0.00 0.00 0.00 74 1015.4
20260903120533 13 0 1.6 9.7 0.00 0.00 0.00 75 1015.4
20260903120051 14 325 0.0 8.0 0.00 0.00 0.00 75 1015.4
20260903115535 14 0 1.6 9.7 0.00 0.00 0.00 74 1015.4
20260903115031 14 0 1.6 9.7 0.00 0.00 0.00 74 1015.5
20260903114549 14 0 1.6 9.7 0.00 0.00 0.00 74 1015.5
20260903114033 14 317 1.6 16.1 0.00 0.00 0.00 74 1015.6
20260903113531 14 352 3.2 16.1 0.00 0.00 0.00 74 1015.6
20260903113053 14 277 1.6 12.9 0.00 0.00 0.00 73 1015.6
20260903112531 14 341 0.0 12.9 0.00 0.00 0.00 73 1015.5
20260903112031 14 0 1.6 8.0 0.00 0.00 0.00 73 1015.5
20260903111558 14 352 0.0 8.0 0.00 0.00 0.00 73 1015.6
20260903111032 14 339 1.6 8.0 0.00 0.00 0.00 73 1015.6
20260903110528 14 360 0.0 8.0 0.00 0.00 0.00 73 1015.6
20260903110046 14 325 1.6 8.0 0.00 0.00 0.00 73 1015.7
20260903105535 14 331 1.6 8.0 0.00 0.00 0.00 72 1015.8
20260903105033 14 265 0.0 6.4 0.00 0.00 0.00 73 1015.8
20260903104612 14 0 0.0 4.8 0.00 0.00 0.00 73 1015.8
20260903104030 14 0 0.0 3.2 0.00 0.00 0.00 73 1015.8
20260903103531 14 246 0.0 3.2 0.00 0.00 0.00 73 1015.7
20260903103100 14 213 0.0 3.2 0.00 0.00 0.00 73 1015.7
20260903102531 14 0 0.0 3.2 0.00 0.00 0.00 73 1015.7
20260903102031 14 0 0.0 3.2 0.00 0.00 0.00 73 1015.7
20260903101552 14 0 0.0 3.2 0.00 0.00 0.00 73 1015.7
20260903101028 14 0 0.0 3.2 0.00 0.00 0.00 73 1015.8
20260903100529 14 0 0.0 3.2 0.00 0.00 0.00 73 1015.8
20260903100048 14 0 0.0 3.2 0.00 0.00 0.00 73 1015.9
20260903095527 15 280 0.0 3.2 0.00 0.00 0.00 73 1015.9
20260903095028 15 0 0.0 3.2 0.00 0.00 0.00 73 1016.0
20260903094551 15 262 0.0 4.8 0.00 0.00 0.00 73 1016.0
20260903094035 15 0 0.0 4.8 0.00 0.00 0.00 73 1016.1
20260903093528 15 0 0.0 6.4 0.00 0.00 0.00 73 1016.0
20260903093102 15 291 0.0 6.4 0.00 0.00 0.00 73 1016.1
20260903092530 15 342 0.0 6.4 0.00 0.00 0.00 73 1016.1
20260903092035 15 0 0.0 6.4 0.00 0.00 0.00 73 1016.2
20260903091552 15 279 0.0 6.4 0.00 0.00 0.00 73 1016.2
20260903091032 15 333 1.6 8.0 0.00 0.00 0.00 73 1016.2
20260903090530 15 0 0.0 8.0 0.00 0.00 0.00 73 1016.2
20260903090046 15 0 0.0 4.8 0.00 0.00 0.00 73 1016.2
20260903085529 15 0 0.0 4.8 0.00 0.00 0.00 73 1016.2
20260903085028 15 294 0.0 4.8 0.00 0.00 0.00 73 1016.2
20260903084546 15 0 0.0 3.2 0.00 0.00 0.00 73 1016.2
20260903084031 15 0 0.0 3.2 0.00 0.00 0.00 73 1016.2